Simultaneous Nadir Overpasses (SNOs) Predictions

Prediction of SNOs between METOP-A and NOAA-19 Satellite Orbit:

Table of predicted SNOs for the next 14.0 days since TLE Epoch: 11/10/2014
Index Date (METOP-A) Time (METOP-A) Lat,Lon (METOP-A) SZA (METOP-A ) Date (NOAA-19) Time (NOAA-19) Lat,Lon (NOAA-19) SZA (NOAA-19 ) Distance(km) Time Diff (sec)
1 11/20/2014 02:09:50 -74.44, -36.62 86.01 11/20/2014 02:08:40 -74.44, -36.68 86.02 1.90 70
2 11/20/2014 03:00:30 74.42, 130.65 93.98 11/20/2014 02:59:39 74.43, 130.58 93.99 2.33 51
3 11/20/2014 03:51:13 -74.38, -62.14 86.06 11/20/2014 03:50:42 -74.38, -62.03 86.06 3.14 31
4 11/20/2014 04:41:52 74.40, 105.26 93.98 11/20/2014 04:41:41 74.37, 105.23 93.95 3.38 11
5 11/20/2014 05:32:35 -74.36, -87.52 86.06 11/20/2014 05:32:45 -74.36, -87.51 86.06 0.70 10
6
